Vertical_Velocity
1 1 0 -1 -1 -2 -5 -4 -2 -0 -3 -2 -1 -1 -2 3 4 7 20 42 45 36 21 10 3 0 1 4 7 9 10 12 14 15 16 14 10 6 2 2 3 4 4 5 4 4 2 1 -1 -2 -1 -0 1 2 4 4 4 3 3 2 0 -0 -0 0 1 2 2 3 3 3 2 2 2 1 0 -1 -0 1 2 3 4 3 2 -0 -1 -1
2 2 1 -1 -1 -2 -4 -3 -1 -0 -2 -1 -2 -4 -3 4 4 6 14 37 45 42 28 16 8 3 2 4 6 8 10 10 10 12 14 15 13 9 5 3 1 -1 -2 -1 -1 -1 -1 -2 -2 -2 -1 -0 -0 0 1 3 3 2 3 3 2 1 -0 -0 1 2 3 3 3 3 2 2 1 1 0 -0 -0 1 3 4 4 4 2 -0 -1 -1
3 2 1 -0 -1 -2 -3 -2 -1 0 -1 -0 -2 -4 -4 0 2 4 11 29 39 41 34 24 17 11 8 7 9 11 14 14 14 15 18 21 23 22 18 14 8 4 0 0 0 0 -0 -1 -1 0 1 1 1 1 1 3 3 3 2 2 2 2 1 0 0 1 2 3 3 3 2 2 1 1 1 0 1 1 3 4 4 3 1 -2 -2 -2
3 3 2 1 -0 -2 -2 -1 0 0 -0 -0 -1 -3 -4 -2 -1 2 10 24 32 35 34 31 25 20 16 13 13 16 19 21 21 21 22 25 29 32 32 28 23 17 13 12 11 10 8 6 5 5 5 5 5 6 6 7 7 6 3 3 2 1 0 -0 -0 0 1 2 2 3 2 2 2 2 2 1 1 2 3 4 4 2 -2 -3 -3 -1
2 3 2 1 -1 -2 -2 0 1 -0 -1 -1 -1 -3 -5 -4 -4 -1 7 19 24 25 27 28 26 23 20 17 16 16 18 21 22 23 23 24 28 32 36 35 31 26 21 20 19 16 13 11 9 8 6 6 6 7 9 11 12 11 9 6 3 1 1 1 -0 -0 -0 0 1 1 2 2 3 3 3 2 2 2 3 4 2 -0 -4 -4 -2 0
3 4 2 0 -2 -3 -2 -1 -1 -1 -1 -1 -2 -3 -5 -6 -5 -2 5 13 15 14 14 17 18 18 17 16 16 15 15 16 17 18 20 21 24 28 32 32 29 24 20 18 15 13 12 10 8 7 5 4 4 5 7 9 10 12 12 9 6 4 4 4 2 0 1 0 1 1 2 2 3 4 4 2 2 2 2 3 1 -2 -5 -2 -0 1
4 4 4 2 -0 -2 -2 -3 -3 -1 -0 -1 -1 -3 -6 -7 -5 -1 4 9 10 8 5 5 6 7 8 10 12 14 15 14 13 13 13 16 19 23 26 25 23 20 16 13 11 10 9 8 7 6 5 5 4 5 6 6 7 8 9 9 8 7 7 6 4 2 2 1 2 3 3 3 4 4 3 1 0 0 1 1 -1 -3 -4 -1 1 2
3 4 5 4 2 -1 -3 -4 -3 -1 -0 0 -0 -2 -6 -7 -4 -1 2 7 8 7 4 2 0 0 1 3 5 8 12 14 13 12 10 11 14 17 20 20 19 17 15 13 12 10 9 8 7 7 6 5 4 4 5 5 5 6 6 7 8 8 8 6 3 1 1 1 2 3 4 4 3 3 1 -0 -1 -1 -0 -1 -3 -3 -2 1 2 2
4 4 5 5 4 1 -2 -3 -2 -1 0 1 -0 -3 -5 -4 -3 -0 2 5 6 6 5 3 1 -0 -0 1 2 4 7 10 12 12 8 8 9 12 15 16 17 17 17 16 14 11 8 7 6 6 7 5 4 3 3 3 4 4 4 5 6 7 7 5 3 0 -1 -1 -0 1 2 2 1 0 -0 -0 -1 -1 -2 -2 -3 -3 -1 1 2 1
5 5 5 5 4 3 1 -0 -1 -2 1 0 -1 -3 -4 -3 -1 1 4 3 3 3 6 4 2 0 -0 -0 0 1 3 6 10 11 9 6 5 6 9 13 16 18 18 18 15 12 9 7 7 7 7 5 4 4 3 3 3 4 4 5 5 6 6 6 4 2 0 -0 -1 -1 -1 -1 -0 -0 0 0 -0 -1 -1 -2 -2 -2 -1 0 1 0
6 5 5 4 4 4 4 0 -2 -2 1 0 -1 -2 -3 -3 -1 2 4 1 1 2 3 2 2 1 -0 -2 -2 -2 0 3 7 10 11 8 5 3 2 6 10 14 17 17 15 12 10 8 8 8 8 7 6 5 4 4 4 5 4 4 5 6 6 6 6 5 4 3 2 1 0 0 1 1 2 1 1 -0 -1 -1 -1 -1 -1 -0 -0 -0
6 6 6 5 5 4 4 1 -0 -0 0 -0 -1 -2 -4 -3 -0 2 4 1 0 0 1 1 1 1 0 -1 -3 -3 -1 1 4 8 12 12 10 7 3 3 4 7 11 12 12 11 9 9 8 9 9 9 8 7 6 5 5 5 4 4 4 4 5 5 6 6 5 4 4 3 2 2 2 3 3 2 1 1 0 0 -0 -1 -1 -1 -0 -0
5 6 7 6 6 5 4 3 2 0 -1 -1 -2 -3 -4 -1 1 4 4 2 0 -0 -0 1 1 1 -0 -1 -2 -2 -2 -1 1 4 9 11 12 11 9 6 5 5 6 6 6 6 7 7 8 8 9 9 8 8 7 6 6 4 3 2 3 3 4 4 4 4 4 4 4 3 2 2 3 3 3 2 1 1 1 1 0 -0 -1 -1 -0 1
4 5 6 6 5 4 4 4 2 -0 -2 -0 0 -0 -1 0 1 2 4 3 2 0 1 1 1 1 1 0 -1 -2 -1 -1 -1 1 5 7 9 11 11 9 8 6 5 4 3 3 4 6 7 8 8 8 8 8 8 8 7 6 4 2 2 2 3 3 3 3 3 3 3 2 2 2 2 2 2 2 1 2 2 1 1 -0 -1 -1 0 2
4 5 6 5 5 5 5 4 3 2 1 2 3 1 -0 -2 -3 -2 2 2 2 2 4 2 2 2 2 1 0 -0 -0 -1 -1 0 2 3 6 8 9 9 8 7 6 6 4 4 3 3 4 5 6 7 7 7 8 9 9 8 6 4 3 3 3 3 2 2 2 2 2 2 1 2 2 2 1 2 2 3 3 2 1 -0 -1 -0 1 3
4 4 5 5 5 5 4 4 4 3 2 2 1 -0 -2 -5 -5 -2 5 3 1 2 4 3 3 4 3 3 3 3 2 0 -0 -0 1 2 3 5 7 7 7 6 7 7 6 5 3 2 2 2 3 4 5 6 8 8 8 8 7 6 5 5 6 5 4 3 2 2 2 2 2 2 2 2 2 3 4 4 4 4 2 1 1 2 3 4
3 4 4 5 4 3 2 4 4 3 2 1 -0 -1 -1 -2 -1 2 6 2 1 1 1 2 3 4 3 5 5 4 3 3 1 1 2 3 2 3 6 6 6 4 4 6 6 6 5 3 1 1 0 1 2 4 6 7 7 8 7 8 8 9 9 9 7 5 2 3 4 5 6 5 4 3 3 4 5 5 5 4 3 3 2 4 5 5
4 4 4 4 3 3 4 4 4 2 3 0 -1 -1 2 2 2 1 -0 -1 0 1 -1 2 4 3 3 4 3 2 5 4 3 3 4 3 3 3 5 5 4 3 3 3 4 5 6 4 3 2 0 -0 0 2 4 5 6 7 7 8 9 10 11 10 8 6 5 5 6 7 7 7 6 6 5 6 6 7 6 4 3 3 3 4 5 5
4 4 4 2 3 4 5 4 3 3 4 0 0 2 3 -0 -1 -2 -4 -2 0 2 1 4 3 2 4 3 1 1 4 2 2 2 1 2 3 4 4 5 5 4 4 3 4 5 6 6 5 4 2 0 -0 -0 1 4 5 7 8 8 9 10 10 10 9 8 8 8 7 6 4 4 5 5 5 5 6 7 8 6 4 3 3 4 4 4
4 4 2 2 2 3 3 2 3 4 4 3 4 4 0 -3 -2 -1 -3 -0 1 2 2 5 2 -0 2 4 3 1 1 1 0 -0 -2 0 1 1 2 4 4 4 5 4 5 5 5 6 6 6 6 4 2 0 -0 2 4 7 9 10 11 11 11 11 11 11 12 11 9 7 4 2 2 2 3 3 4 6 7 7 7 7 5 3 3 3
3 3 1 2 2 2 1 2 3 4 4 5 5 2 -3 -2 -2 -2 -4 -0 -0 -0 1 3 0 -1 3 5 3 0 -0 2 1 -1 -3 -0 -1 -2 -1 2 3 3 3 4 5 5 4 4 5 7 7 7 6 4 1 1 3 6 10 13 14 14 14 14 15 16 16 15 13 10 6 3 2 1 2 2 2 3 4 5 7 8 7 4 3 3
3 2 1 1 1 2 2 3 2 2 2 5 3 0 -2 1 -1 -4 -5 -2 -2 -3 -2 -0 -0 1 6 5 1 -1 -0 2 1 -1 -1 -1 -3 -4 -4 -1 1 2 2 3 4 4 2 3 4 5 6 7 7 7 6 3 2 4 8 12 14 14 14 15 16 16 15 14 13 11 8 6 4 3 1 1 1 2 3 4 5 5 5 4 4 4
2 2 1 0 1 2 3 2 1 -0 1 3 3 3 5 5 0 -4 -3 -2 -4 -4 -1 0 2 4 5 2 -0 -1 -1 -1 -1 0 0 -3 -3 -2 -2 -3 -3 -1 1 2 3 2 1 2 2 3 4 5 6 7 8 6 4 3 4 7 9 10 10 10 11 12 12 12 11 10 9 7 6 4 2 2 2 2 2 2 3 3 3 4 4 5
3 2 1 1 1 2 2 1 0 0 1 2 4 5 7 4 1 -1 0 -2 -3 -2 1 2 2 1 -3 -1 1 1 -4 -3 -1 1 -1 -3 -2 0 -0 -4 -4 -3 -1 1 2 1 0 1 2 2 3 3 4 5 6 7 7 6 4 4 5 7 8 9 9 9 9 9 9 8 8 6 5 4 3 2 2 1 0 1 2 3 4 4 5 5
3 3 2 2 2 1 1 1 2 2 2 2 3 4 4 2 2 2 3 -1 -3 -3 -2 -2 -3 -4 -5 3 5 2 -5 -2 -0 -1 -3 -2 -1 0 -2 -4 -3 -2 -3 -1 0 0 -0 -0 1 2 2 1 2 3 4 6 6 7 6 5 4 4 6 9 10 10 10 8 7 6 5 4 2 2 1 1 1 0 -0 -0 1 2 4 5 6 6
3 3 4 3 2 2 1 2 2 2 1 1 1 2 2 2 4 6 5 0 -2 -3 -2 -4 -5 -3 3 8 5 -0 -3 -0 -2 -4 -4 -1 -0 -1 -4 -3 -1 -1 -4 -3 -2 -1 -0 -0 -0 0 0 0 1 2 2 4 5 6 7 6 4 3 3 6 9 12 12 11 9 6 4 2 1 0 0 0 -0 -1 -1 -1 1 2 4 6 7 6
3 4 4 4 3 3 2 2 2 2 1 1 1 0 1 3 5 6 4 0 0 1 -0 -3 -2 2 7 5 -1 -4 0 0 -3 -6 -3 -1 -1 -2 -3 -0 1 -0 -3 -5 -4 -3 0 -0 -0 -0 -1 -1 -1 0 0 2 4 5 6 6 5 4 2 2 4 8 12 13 12 10 7 5 3 2 2 1 0 -1 -2 -0 1 3 5 7 7 7
3 4 4 4 3 3 2 2 2 2 2 1 1 -0 -0 2 3 3 1 3 4 3 -3 -5 -2 2 4 -2 -4 -2 6 -0 -5 -6 0 -0 -2 -3 -1 2 1 -1 -2 -5 -6 -4 1 -0 -1 -0 -0 -2 -2 -2 -2 0 2 4 4 4 4 4 2 1 1 2 6 9 12 13 12 10 8 6 5 4 2 1 -0 1 3 5 6 7 8 7
3 4 4 4 4 3 2 2 2 2 2 2 1 -0 -1 1 2 3 3 6 5 -0 -9 -4 -0 2 -0 -2 -0 4 5 -4 -6 -3 3 -2 -6 -6 2 4 0 -4 -1 -2 -4 -4 -1 -2 -0 1 -0 -1 -2 -2 -4 -1 1 2 3 3 3 3 3 2 1 1 1 3 6 9 12 13 12 10 8 6 4 3 3 4 6 7 7 7 7 7
1 3 4 4 4 4 3 2 1 1 2 2 1 0 -1 0 2 3 4 5 1 -5 -7 1 3 2 -1 0 2 3 -2 -7 -4 1 3 -5 -8 -5 5 3 -2 -4 1 1 -1 -3 -4 -3 0 2 0 0 -0 -2 -4 -3 -1 0 1 1 1 2 2 2 1 1 1 0 1 3 5 8 11 11 11 9 8 7 6 6 7 7 7 6 5 4
-1 1 2 3 4 4 4 2 2 1 1 1 1 1 0 1 2 3 3 -0 -4 -4 1 6 4 -0 -2 0 1 -1 -4 -2 1 3 -0 -7 -7 -2 7 -0 -4 -3 2 0 -1 -2 -4 -3 -1 1 1 1 -0 -2 -3 -3 -2 -1 0 0 0 0 0 0 0 0 0 0 -0 0 1 2 4 6 8 8 9 9 8 8 8 7 6 6 5 4
-2 -0 0 1 3 4 4 3 2 2 1 0 1 1 1 1 2 2 1 -3 -3 -0 6 5 1 -2 -1 -0 -0 0 3 6 5 -0 -6 -8 -4 2 6 -3 -4 -2 1 -2 -2 -2 -2 -2 -2 -0 3 1 -0 -1 -1 -2 -2 -1 -0 -0 -0 -0 -0 -0 -1 -2 -1 -1 -0 -0 -0 -0 0 1 2 3 5 6 7 8 9 9 8 8 7 6
-2 -1 -1 -0 1 3 4 4 4 2 1 0 -0 0 1 1 2 1 0 -2 -2 1 3 1 -1 -1 1 2 2 3 8 8 1 -6 -9 -6 -2 2 2 -2 -3 -1 -1 -2 -3 -2 -1 -2 -1 1 2 0 0 1 -1 -2 -2 -1 -0 0 0 -0 0 -0 -2 -4 -4 -2 -1 -1 -1 -1 -0 -0 0 0 1 1 3 4 7 9 10 11 10 9
-1 -1 -1 -1 -0 1 3 4 4 3 1 1 -0 -1 -0 1 1 1 0 -1 -2 -1 -1 -1 -0 1 3 3 3 4 8 4 -2 -6 -6 -4 -2 0 1 -1 -1 -1 0 -3 -3 -2 -0 -1 0 2 0 -0 1 1 -1 -2 -2 -2 -0 0 0 0 1 2 0 -2 -4 -4 -3 -2 -2 -1 -1 -0 -0 -0 -0 -0 -0 1 2 5 8 10 11 11
-0 -0 -1 -1 -0 0 1 3 3 3 3 1 -0 -2 -1 -1 -0 -0 -0 -1 -2 -2 -2 -1 0 2 3 3 4 4 6 2 -0 -1 -2 -3 -2 0 2 -2 -1 1 2 -4 -4 -2 -1 -2 -0 1 -0 1 1 -0 -1 -1 -2 -2 -0 -0 -0 -0 1 4 5 4 -0 -3 -5 -4 -2 -1 -1 -1 -1 -0 -0 -0 -0 -0 0 1 3 6 8 10
0 0 -0 -0 0 1 0 1 2 3 4 2 -0 -2 -2 -2 -2 -1 -1 -1 -1 -2 -2 -2 -1 0 1 2 3 5 5 3 2 0 -3 -4 -2 1 1 -4 -1 3 2 -5 -5 -2 -2 -2 -1 1 1 1 -0 -1 -0 -0 -1 -1 -2 -2 -1 -1 -1 4 7 9 7 1 -3 -5 -4 -2 -2 -2 -1 -1 -0 -0 -0 -0 0 0 0 0 2 4
1 1 0 1 2 1 0 -0 1 3 3 1 -0 -2 -3 -4 -3 -3 -1 -1 -1 -1 -2 -2 -2 -1 -1 0 3 5 5 4 2 -2 -7 -4 -0 2 -1 -4 0 4 1 -5 -4 -2 -3 -2 -1 0 0 -0 0 1 1 1 -0 -2 -4 -2 -2 -2 -2 2 7 10 11 8 2 -2 -4 -4 -3 -3 -2 -1 -1 -1 -2 -1 -1 -0 -0 -1 -2 -1
1 1 1 2 2 2 1 1 1 2 2 1 -0 -2 -4 -4 -3 -3 -2 -1 -0 -0 -1 -2 -3 -3 -2 -0 2 4 4 4 -0 -5 -6 -1 1 1 -2 -1 1 2 -3 -3 -2 -1 -3 -2 -2 -1 -1 0 2 2 1 0 -1 -3 -5 -2 -1 -2 -4 -0 4 9 12 11 8 5 1 -2 -3 -4 -3 -3 -2 -2 -3 -3 -2 -1 -0 -1 -2 -2
1 2 3 2 2 2 1 1 1 0 1 1 -1 -3 -3 -3 -3 -3 -2 -1 -1 -1 -1 -2 -3 -3 -3 -1 0 2 3 1 -2 -3 -1 1 1 -0 -1 0 1 -0 -3 -1 0 -1 -4 -4 -2 -1 1 2 2 1 -0 -0 -2 -3 -3 -1 -1 -3 -4 -1 3 7 10 10 11 10 8 5 2 -0 -3 -3 -3 -3 -4 -3 -2 -1 -1 -1 -1 -2
1 4 4 2 2 2 2 1 -0 -0 1 1 -1 -3 -2 -2 -3 -3 -2 -2 -1 -1 -1 -2 -2 -3 -3 -2 -1 0 1 -0 -1 -1 1 -0 -1 -2 -1 1 0 -0 -0 1 0 -1 -3 -3 -2 -0 1 1 0 -0 1 0 -1 -2 0 -0 -3 -5 -3 0 2 4 7 9 10 10 11 10 8 5 -0 -2 -3 -3 -3 -2 -2 -2 -2 -1 -1 -1
2 4 3 2 3 3 3 -0 -1 -0 2 -0 -1 -1 -1 -2 -2 -2 -2 -2 -1 -1 -3 -1 -2 -3 -4 -2 -1 -1 0 -0 -0 -0 -1 -2 -3 -2 -0 0 1 1 1 -0 -1 -1 -1 -0 -0 0 1 0 -0 0 1 -0 -0 0 1 -4 -6 -6 -2 -0 -0 1 6 8 9 9 10 10 9 6 1 -1 -3 -3 -3 -2 -2 -3 -3 -2 -2 -2
2 2 2 4 5 4 1 -2 -1 0 0 -0 1 1 -1 -2 -0 0 -2 -2 -2 -3 -3 -1 -1 -3 -3 -2 -2 -1 1 -0 -1 -2 -3 -3 -2 -1 -1 -0 0 1 0 -1 -2 -1 -0 0 0 -0 -1 -1 0 1 1 0 1 1 -1 -5 -4 -2 2 -2 -3 -0 6 7 8 9 10 9 7 4 0 -2 -4 -4 -3 -3 -3 -3 -3 -3 -3 -3
-0 0 3 6 6 3 -1 -0 1 0 -3 -0 2 2 -2 -0 1 -0 -3 -3 -3 -3 -2 -1 -1 -2 -1 -1 -1 -1 0 -2 -2 -2 -3 -4 -3 -2 -2 -2 -1 -0 -0 -1 -1 -2 -1 1 1 -0 -2 -0 1 0 -1 2 3 2 -2 -3 -1 1 -1 -6 -3 2 5 4 5 8 9 7 5 3 -0 -3 -5 -5 -3 -3 -3 -4 -3 -4 -4 -4
-1 1 5 5 4 2 1 3 1 -2 -4 1 3 1 -1 1 -0 -2 -4 -2 -2 -2 -1 -2 -2 -1 3 -0 -1 -1 -1 -3 -2 -2 -4 -5 -4 -3 -3 -2 -2 -1 -1 -1 -2 -2 -1 0 -1 -2 -1 1 1 -1 0 4 4 1 -2 -1 -0 -3 -9 -8 -2 3 0 -1 3 7 7 6 5 4 2 -1 -2 -2 -0 -1 -1 -1 -2 -2 -3 -3
2 3 4 3 2 3 5 2 -2 -4 0 3 2 -1 -0 0 -1 -3 -2 -1 -1 -1 -1 -4 -2 1 2 -2 -0 2 -0 -3 -3 -3 -5 -4 -4 -3 -3 -3 -3 -3 -2 -2 -2 -1 1 -1 -3 -2 2 2 -0 -1 2 5 4 2 -0 0 -1 -4 -9 -3 1 0 -7 -4 1 6 6 6 7 6 4 3 3 4 4 4 4 4 3 3 2 0
2 2 2 1 2 4 4 -1 -1 1 5 1 -2 -2 1 0 -1 -2 -0 -0 -0 -1 -4 -4 -1 2 -1 -1 3 6 1 -3 -4 -4 -4 -4 -4 -4 -4 -3 -3 -3 -2 -3 -2 -1 -0 -3 -3 -1 3 -0 -2 -1 4 5 4 2 0 -0 -1 -3 -3 1 -0 -5 -9 -4 -0 1 2 6 7 6 4 5 5 6 5 5 5 5 6 6 6 4
-0 1 2 2 3 3 1 -0 2 4 0 -5 -4 -0 3 0 -1 -1 -1 -0 -0 -1 -4 -4 -0 1 -2 1 5 6 -1 -2 -2 -2 -3 -3 -4 -4 -4 -4 -4 -3 -3 -3 -3 -2 -2 -4 -2 -0 0 -2 -2 1 5 5 4 1 -0 0 -0 -1 -1 -1 -2 -4 -3 -2 -3 -4 -1 4 6 5 4 5 6 6 5 4 4 4 5 5 6 5
1 4 4 2 2 2 -1 0 2 1 -5 -5 -0 4 3 -1 -2 -1 -1 -2 -0 0 -2 -3 -1 -0 -1 5 5 3 -1 2 1 -1 -2 -3 -4 -4 -4 -4 -4 -4 -4 -4 -4 -3 -4 -4 -3 -2 -3 -2 -0 3 5 4 2 0 0 2 1 -0 -2 -2 -1 -1 -0 -3 -5 -6 -2 0 1 1 3 6 6 5 3 4 5 5 5 4 4 5
3 5 2 1 2 2 -1 0 1 1 -3 0 3 4 -1 -3 -2 -0 -1 -2 -0 1 -1 -3 -3 -1 3 6 3 1 3 4 2 -1 -2 -3 -3 -3 -3 -4 -4 -4 -5 -5 -4 -4 -5 -4 -4 -4 -4 -1 1 3 3 2 0 0 3 3 2 -0 -1 -0 0 -0 -1 -4 -4 -4 -2 -5 -6 -5 1 4 4 2 3 5 5 4 4 4 4 4
3 2 -1 2 3 2 -0 2 3 2 -1 1 2 1 -3 -3 -1 1 -1 -1 0 0 -2 -3 -1 2 5 3 2 2 5 3 1 -0 -1 -2 -2 -1 -2 -4 -4 -4 -5 -6 -5 -4 -4 -4 -5 -5 -3 -0 1 2 1 -0 -0 1 4 3 1 1 1 1 -0 -1 -2 -3 -3 -3 -4 -7 -7 -5 0 -0 -2 -1 3 4 4 4 5 6 5 4
-1 -2 0 4 4 2 1 4 4 2 -2 0 1 1 -2 -1 1 1 -2 -0 -0 -1 -4 -1 1 3 2 1 3 4 4 2 2 2 -1 -1 -0 1 -3 -4 -3 -3 -5 -6 -6 -5 -4 -4 -5 -4 -3 -1 0 1 1 -1 0 2 3 0 1 2 3 1 -1 -1 -1 -2 -3 -3 -4 -5 -6 -5 -3 -5 -4 -2 2 2 2 3 6 7 6 5
Height
5672 5674 5676 5678 5680 5682 5682 5683 5685 5686 5687 5687 5688 5690 5692 5694 5695 5697 5700 5706 5710 5713 5715 5716 5717 5718 5718 5719 5720 5722 5724 5727 5731 5735 5738 5741 5742 5743 5742 5741 5741 5742 5743 5744 5745 5747 5748 5750 5752 5754 5756 5758 5759 5761 5763 5766 5769 5771 5771 5774 5775 5776 5778 5780 5782 5783 5785 5786 5788 5789 5790 5792 5793 5794 5796 5797 5798 5799 5801 5802 5804 5805 5807 5808 5809 5810
5670 5672 5675 5677 5678 5680 5681 5682 5683 5684 5685 5686 5687 5688 5690 5691 5693 5695 5697 5702 5707 5709 5711 5712 5714 5715 5716 5717 5718 5719 5721 5724 5727 5732 5737 5741 5743 5744 5743 5741 5740 5740 5742 5743 5744 5745 5746 5747 5749 5751 5753 5754 5756 5757 5759 5762 5765 5767 5768 5769 5771 5772 5773 5775 5777 5779 5781 5782 5784 5785 5787 5788 5789 5791 5792 5793 5794 5796 5797 5798 5800 5801 5803 5804 5805 5807
5668 5670 5672 5674 5676 5678 5680 5681 5681 5682 5683 5684 5685 5687 5688 5689 5691 5692 5694 5699 5703 5705 5705 5707 5708 5710 5712 5713 5714 5716 5718 5721 5724 5729 5734 5739 5742 5742 5742 5741 5741 5740 5741 5742 5744 5745 5744 5744 5746 5748 5749 5751 5752 5753 5755 5757 5760 5763 5764 5766 5767 5768 5770 5771 5773 5775 5777 5778 5780 5782 5783 5784 5785 5787 5788 5789 5791 5792 5793 5794 5796 5797 5799 5800 5802 5803
5666 5667 5669 5672 5674 5676 5677 5678 5679 5680 5681 5682 5683 5685 5686 5687 5688 5690 5692 5696 5698 5700 5701 5702 5703 5704 5706 5707 5709 5712 5714 5717 5720 5724 5728 5732 5736 5737 5738 5738 5738 5738 5737 5738 5740 5742 5743 5742 5742 5743 5745 5746 5747 5748 5750 5752 5754 5757 5759 5762 5763 5764 5765 5767 5768 5770 5772 5774 5776 5777 5779 5780 5781 5782 5784 5785 5787 5788 5789 5790 5792 5793 5795 5797 5798 5800
5664 5665 5667 5669 5671 5673 5674 5675 5676 5677 5679 5680 5681 5682 5684 5685 5686 5688 5689 5692 5693 5695 5696 5698 5699 5700 5701 5703 5704 5707 5709 5712 5714 5717 5720 5724 5727 5729 5731 5732 5733 5732 5733 5734 5734 5736 5738 5738 5738 5738 5739 5741 5742 5743 5745 5746 5748 5751 5753 5756 5757 5759 5760 5762 5764 5766 5768 5770 5772 5773 5775 5776 5777 5778 5780 5781 5783 5784 5785 5787 5788 5789 5791 5793 5795 5796
5661 5662 5664 5666 5668 5670 5671 5672 5674 5675 5677 5678 5679 5680 5681 5682 5684 5685 5686 5687 5688 5689 5691 5693 5694 5696 5697 5699 5701 5703 5705 5707 5709 5711 5713 5716 5718 5720 5723 5726 5727 5727 5727 5728 5729 5730 5731 5732 5733 5734 5735 5736 5737 5739 5740 5742 5744 5746 5748 5750 5752 5754 5757 5759 5761 5763 5765 5766 5767 5769 5770 5772 5774 5775 5775 5777 5779 5780 5782 5782 5784 5786 5788 5790 5792 5792
5659 5660 5662 5663 5665 5666 5668 5670 5671 5672 5674 5676 5677 5678 5679 5680 5682 5682 5682 5683 5684 5685 5687 5688 5690 5691 5692 5695 5697 5699 5701 5703 5705 5707 5709 5711 5712 5714 5717 5720 5722 5722 5722 5722 5723 5725 5726 5727 5728 5729 5731 5732 5734 5735 5737 5738 5740 5742 5744 5746 5748 5750 5752 5754 5756 5758 5761 5762 5764 5766 5767 5768 5769 5770 5771 5773 5775 5776 5777 5779 5781 5783 5785 5787 5788 5789
5657 5658 5659 5661 5662 5664 5666 5667 5668 5670 5672 5672 5674 5675 5677 5678 5679 5679 5679 5680 5680 5681 5683 5685 5686 5688 5689 5691 5692 5694 5696 5699 5701 5703 5705 5706 5708 5710 5712 5715 5717 5720 5720 5720 5719 5720 5722 5723 5725 5726 5727 5728 5730 5732 5733 5735 5737 5738 5740 5742 5744 5745 5746 5747 5749 5752 5754 5757 5759 5762 5764 5764 5765 5766 5767 5769 5771 5772 5773 5775 5777 5779 5782 5783 5784 5785
5655 5656 5657 5657 5659 5661 5663 5664 5665 5667 5668 5670 5671 5672 5674 5675 5676 5677 5677 5677 5678 5678 5679 5681 5683 5685 5687 5689 5690 5691 5693 5695 5697 5698 5699 5701 5702 5704 5707 5709 5712 5715 5717 5718 5718 5718 5718 5719 5721 5722 5724 5725 5727 5728 5729 5731 5733 5734 5736 5738 5740 5741 5742 5743 5745 5747 5749 5751 5753 5756 5758 5758 5760 5762 5764 5765 5767 5768 5770 5771 5774 5776 5778 5779 5780 5781
5653 5653 5654 5654 5656 5657 5659 5660 5662 5663 5665 5666 5667 5669 5670 5672 5673 5674 5675 5675 5675 5676 5677 5678 5680 5682 5684 5686 5687 5689 5690 5692 5693 5694 5696 5697 5698 5699 5701 5703 5706 5708 5711 5714 5716 5717 5717 5717 5719 5720 5722 5723 5725 5726 5727 5729 5730 5731 5732 5734 5735 5737 5739 5740 5742 5744 5746 5748 5749 5751 5752 5754 5756 5758 5760 5762 5763 5764 5766 5768 5770 5772 5774 5775 5776 5777
5650 5650 5651 5652 5653 5654 5656 5657 5658 5660 5661 5662 5664 5666 5667 5669 5670 5671 5672 5672 5673 5673 5674 5676 5677 5679 5681 5683 5684 5686 5687 5688 5690 5692 5693 5693 5695 5696 5697 5698 5700 5702 5705 5708 5711 5713 5714 5715 5717 5718 5720 5721 5722 5723 5724 5727 5728 5728 5729 5730 5732 5733 5735 5737 5739 5741 5743 5745 5746 5748 5749 5751 5752 5754 5756 5758 5759 5761 5762 5764 5767 5768 5770 5771 5772 5772
5646 5647 5648 5649 5650 5651 5652 5654 5655 5657 5658 5660 5661 5663 5664 5666 5667 5667 5668 5669 5670 5671 5672 5673 5675 5676 5678 5680 5681 5682 5684 5685 5687 5688 5690 5691 5692 5693 5694 5695 5697 5698 5700 5702 5704 5707 5710 5712 5713 5714 5716 5718 5719 5720 5721 5722 5723 5725 5726 5727 5728 5730 5732 5733 5735 5737 5739 5741 5743 5745 5746 5748 5749 5751 5752 5754 5756 5757 5758 5761 5763 5764 5766 5767 5767 5768
5642 5643 5644 5645 5646 5647 5648 5650 5652 5653 5655 5656 5657 5658 5660 5661 5662 5664 5665 5666 5667 5668 5669 5670 5672 5673 5675 5676 5677 5679 5680 5682 5683 5685 5686 5687 5689 5690 5691 5692 5694 5695 5696 5697 5699 5701 5704 5707 5709 5710 5712 5713 5715 5717 5718 5719 5719 5720 5722 5723 5725 5727 5728 5730 5732 5733 5735 5737 5739 5741 5742 5744 5746 5747 5749 5750 5752 5753 5755 5757 5759 5760 5762 5762 5763 5764
5638 5639 5640 5641 5642 5643 5644 5646 5647 5649 5650 5651 5652 5654 5655 5657 5658 5660 5660 5662 5663 5664 5666 5667 5668 5670 5671 5672 5674 5675 5676 5677 5679 5681 5682 5684 5685 5686 5688 5689 5690 5692 5693 5695 5696 5697 5699 5702 5704 5706 5707 5709 5710 5712 5714 5716 5717 5718 5718 5720 5722 5723 5725 5727 5728 5730 5731 5733 5735 5737 5738 5740 5742 5743 5745 5746 5748 5749 5752 5754 5755 5757 5758 5759 5760 5761
5634 5635 5635 5636 5637 5638 5640 5642 5643 5645 5646 5647 5648 5650 5652 5654 5655 5656 5656 5657 5658 5660 5662 5663 5664 5666 5667 5669 5670 5671 5672 5673 5675 5677 5678 5679 5681 5682 5684 5686 5687 5688 5690 5692 5693 5694 5696 5697 5699 5701 5703 5705 5706 5707 5709 5711 5713 5714 5716 5717 5718 5721 5723 5724 5725 5726 5727 5729 5731 5732 5734 5736 5738 5740 5741 5742 5744 5746 5748 5750 5752 5753 5754 5755 5757 5758
5630 5630 5631 5632 5632 5633 5635 5637 5638 5640 5642 5644 5646 5648 5649 5651 5651 5651 5651 5652 5653 5655 5657 5658 5660 5662 5663 5664 5666 5667 5668 5669 5671 5672 5674 5675 5677 5678 5681 5682 5683 5685 5686 5688 5689 5691 5692 5693 5695 5696 5698 5700 5702 5704 5705 5707 5708 5710 5712 5715 5717 5720 5722 5722 5722 5723 5724 5725 5727 5730 5732 5733 5735 5736 5737 5739 5741 5742 5744 5746 5748 5749 5750 5752 5753 5755
5626 5626 5627 5627 5628 5629 5630 5632 5633 5635 5637 5640 5642 5644 5645 5645 5646 5646 5647 5648 5649 5650 5652 5654 5655 5657 5659 5660 5662 5663 5664 5665 5667 5668 5670 5671 5672 5674 5676 5678 5679 5681 5682 5684 5686 5687 5688 5690 5691 5692 5694 5696 5697 5699 5701 5702 5704 5706 5708 5711 5715 5718 5720 5721 5722 5722 5722 5723 5725 5727 5729 5731 5732 5733 5734 5736 5737 5739 5741 5742 5744 5746 5747 5748 5750 5751
5622 5622 5622 5623 5624 5624 5625 5627 5628 5630 5632 5635 5637 5638 5639 5640 5642 5643 5644 5645 5645 5646 5647 5648 5650 5652 5654 5656 5657 5659 5660 5661 5662 5663 5665 5667 5668 5670 5672 5673 5675 5676 5678 5680 5682 5683 5685 5686 5687 5689 5690 5692 5693 5695 5696 5698 5699 5701 5703 5707 5710 5714 5717 5718 5719 5720 5720 5721 5723 5725 5726 5728 5729 5730 5731 5732 5734 5736 5737 5739 5741 5742 5743 5745 5746 5747
5617 5618 5618 5619 5619 5620 5621 5622 5623 5625 5627 5629 5631 5632 5634 5636 5638 5639 5640 5641 5641 5642 5642 5643 5645 5647 5649 5651 5652 5653 5656 5657 5658 5659 5661 5662 5664 5666 5667 5669 5670 5672 5674 5676 5677 5679 5681 5682 5683 5685 5686 5688 5689 5690 5692 5694 5695 5697 5699 5702 5705 5708 5711 5713 5715 5716 5717 5719 5720 5722 5723 5725 5726 5727 5729 5730 5731 5733 5734 5736 5737 5738 5739 5741 5742 5743
5613 5614 5614 5614 5615 5616 5617 5617 5618 5619 5622 5623 5625 5627 5629 5631 5632 5634 5635 5636 5637 5637 5638 5639 5640 5642 5644 5646 5647 5649 5651 5652 5654 5655 5657 5658 5660 5662 5663 5665 5666 5668 5670 5672 5673 5674 5676 5678 5679 5681 5682 5684 5685 5686 5688 5690 5692 5693 5696 5698 5700 5703 5705 5707 5708 5710 5712 5714 5717 5718 5720 5720 5721 5722 5724 5725 5727 5729 5731 5733 5735 5736 5736 5737 5738 5739
5608 5609 5610 5610 5611 5612 5612 5613 5613 5614 5616 5618 5620 5622 5624 5625 5627 5628 5629 5630 5632 5633 5634 5635 5636 5637 5638 5640 5642 5643 5645 5647 5649 5650 5652 5654 5656 5658 5659 5661 5662 5663 5665 5667 5668 5670 5672 5673 5675 5677 5678 5679 5681 5682 5684 5685 5687 5690 5693 5696 5698 5699 5701 5702 5704 5705 5707 5709 5711 5713 5716 5717 5717 5718 5720 5721 5722 5724 5726 5728 5730 5732 5734 5734 5734 5735
5603 5604 5605 5606 5607 5607 5608 5608 5608 5609 5611 5612 5615 5617 5618 5619 5621 5623 5624 5626 5627 5629 5630 5631 5631 5631 5633 5635 5637 5637 5639 5642 5643 5645 5647 5650 5652 5654 5655 5656 5657 5659 5661 5662 5664 5665 5667 5669 5671 5672 5674 5675 5677 5678 5680 5681 5682 5685 5688 5691 5694 5696 5697 5698 5700 5701 5703 5704 5706 5708 5710 5713 5715 5715 5716 5717 5719 5721 5722 5724 5726 5727 5730 5730 5731 5732
5598 5599 5600 5601 5602 5602 5603 5603 5604 5605 5606 5607 5609 5610 5611 5613 5616 5617 5619 5621 5622 5623 5624 5625 5626 5627 5629 5631 5631 5632 5634 5636 5637 5640 5643 5645 5647 5649 5651 5652 5653 5655 5656 5657 5659 5661 5663 5665 5667 5668 5670 5671 5672 5674 5675 5677 5678 5680 5682 5685 5688 5690 5692 5694 5695 5697 5698 5700 5702 5703 5705 5708 5710 5711 5712 5713 5715 5717 5718 5720 5722 5723 5724 5725 5726 5728
5593 5594 5595 5596 5596 5597 5598 5599 5600 5600 5601 5602 5602 5603 5605 5607 5610 5612 5613 5615 5617 5618 5618 5620 5622 5624 5626 5626 5626 5627 5629 5630 5632 5634 5637 5640 5642 5644 5647 5648 5648 5649 5651 5653 5655 5657 5658 5661 5662 5664 5666 5667 5668 5670 5671 5672 5674 5676 5678 5680 5682 5684 5687 5688 5691 5692 5694 5696 5697 5699 5701 5702 5705 5707 5709 5710 5712 5713 5715 5716 5717 5719 5720 5721 5722 5723
5587 5589 5590 5590 5591 5592 5593 5594 5595 5595 5596 5596 5597 5598 5600 5602 5604 5606 5608 5610 5612 5613 5614 5616 5618 5620 5620 5620 5621 5622 5623 5624 5627 5629 5632 5634 5636 5639 5642 5643 5643 5644 5646 5648 5650 5652 5654 5656 5658 5660 5662 5663 5665 5666 5667 5668 5670 5671 5673 5675 5677 5679 5682 5684 5686 5688 5690 5692 5693 5695 5697 5698 5700 5702 5705 5707 5708 5710 5711 5712 5713 5715 5716 5717 5719 5720
5581 5583 5584 5585 5586 5587 5588 5588 5589 5590 5591 5591 5592 5593 5594 5596 5598 5600 5602 5605 5606 5607 5608 5611 5613 5614 5613 5615 5616 5617 5618 5620 5622 5624 5626 5628 5631 5634 5636 5637 5639 5639 5641 5643 5645 5648 5650 5652 5653 5656 5658 5659 5661 5662 5664 5665 5666 5667 5669 5671 5672 5674 5676 5678 5681 5684 5686 5688 5690 5691 5693 5694 5696 5698 5700 5702 5704 5706 5708 5708 5710 5711 5712 5715 5717 5719
5574 5576 5578 5579 5580 5581 5582 5583 5584 5585 5586 5586 5587 5587 5588 5590 5592 5595 5597 5598 5598 5600 5602 5605 5607 5608 5609 5611 5613 5613 5613 5615 5617 5619 5620 5623 5626 5629 5631 5632 5633 5634 5636 5638 5640 5642 5645 5647 5649 5651 5653 5655 5657 5658 5660 5661 5662 5664 5665 5667 5668 5670 5672 5673 5676 5678 5681 5684 5686 5688 5689 5691 5693 5695 5697 5699 5701 5703 5705 5705 5707 5708 5709 5712 5715 5716
5567 5569 5571 5572 5574 5575 5576 5577 5578 5579 5580 5581 5582 5582 5583 5585 5587 5589 5590 5590 5591 5594 5597 5601 5602 5603 5605 5607 5608 5608 5609 5611 5613 5613 5614 5618 5621 5623 5625 5627 5628 5630 5631 5633 5635 5637 5640 5642 5644 5647 5649 5651 5652 5654 5656 5657 5658 5660 5661 5663 5665 5667 5668 5670 5672 5673 5676 5678 5681 5683 5685 5687 5689 5691 5693 5695 5697 5699 5701 5702 5704 5705 5706 5708 5711 5712
5559 5561 5563 5565 5567 5568 5569 5571 5572 5573 5574 5575 5576 5577 5578 5580 5582 5582 5582 5583 5586 5589 5593 5595 5597 5598 5600 5602 5603 5604 5606 5608 5608 5607 5609 5613 5616 5617 5619 5622 5624 5625 5627 5628 5630 5632 5635 5637 5639 5642 5644 5646 5648 5650 5651 5652 5654 5656 5657 5659 5661 5663 5665 5667 5668 5670 5671 5673 5675 5677 5680 5683 5685 5687 5688 5690 5693 5695 5697 5699 5700 5702 5703 5704 5706 5706
5551 5553 5555 5557 5559 5561 5562 5564 5565 5567 5568 5569 5570 5572 5573 5574 5576 5576 5576 5578 5582 5585 5586 5587 5590 5592 5595 5597 5599 5601 5602 5603 5602 5602 5605 5608 5610 5611 5613 5617 5619 5620 5622 5624 5626 5627 5629 5631 5634 5637 5639 5641 5643 5645 5646 5647 5649 5651 5653 5655 5657 5659 5661 5663 5665 5666 5668 5669 5671 5672 5675 5677 5680 5682 5684 5687 5689 5691 5693 5695 5697 5698 5699 5700 5700 5701
5543 5545 5547 5549 5551 5553 5555 5557 5558 5559 5561 5562 5564 5565 5567 5568 5569 5570 5571 5574 5577 5578 5578 5580 5583 5587 5589 5592 5595 5597 5598 5597 5596 5597 5601 5604 5604 5605 5608 5612 5614 5615 5617 5619 5621 5623 5624 5626 5629 5632 5634 5636 5638 5640 5641 5642 5644 5647 5648 5651 5653 5655 5657 5659 5661 5662 5664 5666 5667 5669 5670 5672 5674 5677 5680 5682 5685 5687 5689 5691 5692 5694 5695 5695 5696 5696
5536 5537 5539 5541 5542 5545 5547 5549 5551 5552 5553 5555 5557 5558 5560 5562 5563 5565 5567 5569 5570 5572 5572 5574 5577 5581 5583 5586 5589 5591 5592 5591 5592 5593 5597 5599 5599 5600 5604 5607 5608 5609 5612 5615 5616 5618 5620 5622 5624 5627 5629 5631 5632 5634 5636 5637 5639 5642 5644 5646 5648 5651 5653 5655 5656 5658 5660 5662 5663 5665 5667 5669 5671 5673 5675 5677 5679 5681 5683 5685 5688 5689 5690 5691 5691 5692
5529 5530 5531 5532 5534 5537 5539 5541 5542 5544 5546 5547 5549 5551 5553 5555 5557 5559 5561 5562 5564 5566 5567 5570 5572 5575 5577 5579 5582 5584 5586 5587 5588 5590 5593 5594 5594 5595 5599 5602 5603 5604 5607 5609 5611 5613 5615 5617 5620 5622 5625 5626 5627 5629 5631 5632 5634 5636 5639 5641 5644 5646 5649 5651 5652 5654 5655 5657 5659 5661 5663 5665 5667 5670 5671 5673 5674 5676 5677 5679 5682 5684 5685 5686 5686 5687
5521 5522 5523 5524 5526 5528 5530 5532 5534 5536 5538 5540 5541 5543 5545 5547 5549 5552 5554 5556 5558 5560 5562 5565 5567 5568 5570 5572 5576 5578 5580 5582 5583 5585 5587 5589 5589 5591 5594 5597 5598 5599 5601 5604 5606 5607 5610 5612 5615 5617 5619 5621 5622 5624 5626 5627 5629 5631 5633 5636 5639 5642 5644 5647 5649 5650 5651 5652 5654 5656 5659 5661 5663 5666 5667 5669 5671 5672 5673 5674 5676 5678 5680 5681 5682 5683
5513 5515 5516 5517 5518 5519 5521 5523 5526 5528 5530 5531 5533 5535 5537 5539 5542 5544 5547 5550 5552 5555 5557 5559 5561 5562 5564 5567 5569 5572 5574 5575 5576 5578 5582 5583 5585 5586 5589 5592 5593 5593 5596 5598 5600 5602 5605 5607 5609 5612 5614 5615 5617 5619 5621 5622 5624 5626 5628 5631 5634 5637 5639 5642 5645 5647 5647 5648 5650 5651 5653 5656 5658 5660 5662 5665 5667 5668 5669 5671 5672 5674 5675 5676 5677 5679
5505 5507 5508 5509 5510 5511 5513 5515 5517 5519 5521 5523 5525 5527 5529 5531 5534 5537 5539 5542 5546 5548 5551 5553 5555 5557 5559 5561 5563 5566 5567 5568 5570 5573 5576 5578 5580 5581 5584 5586 5587 5588 5591 5593 5595 5597 5599 5602 5604 5606 5609 5611 5612 5614 5616 5617 5619 5621 5623 5626 5628 5631 5634 5637 5640 5642 5644 5645 5646 5647 5648 5650 5653 5655 5657 5659 5661 5663 5665 5667 5668 5669 5671 5672 5673 5674
5496 5498 5500 5502 5502 5503 5505 5506 5508 5511 5512 5514 5516 5518 5520 5523 5526 5529 5532 5535 5538 5541 5544 5547 5549 5551 5553 5555 5557 5559 5560 5562 5564 5568 5571 5573 5574 5576 5579 5580 5582 5583 5586 5588 5589 5591 5594 5596 5599 5601 5604 5606 5607 5609 5611 5613 5615 5617 5618 5620 5623 5626 5628 5632 5635 5637 5639 5641 5642 5642 5644 5645 5647 5649 5652 5654 5656 5658 5660 5662 5663 5665 5666 5667 5669 5670
5487 5489 5491 5493 5495 5496 5497 5498 5500 5502 5504 5506 5507 5510 5512 5515 5517 5521 5524 5527 5530 5533 5537 5539 5542 5545 5547 5549 5551 5553 5554 5556 5559 5562 5565 5567 5568 5570 5573 5575 5576 5578 5581 5582 5584 5586 5589 5592 5594 5596 5598 5600 5602 5604 5606 5608 5610 5612 5613 5615 5617 5621 5623 5626 5629 5632 5634 5636 5637 5639 5640 5641 5642 5644 5646 5648 5651 5652 5654 5656 5658 5660 5662 5663 5665 5666
5477 5479 5482 5485 5486 5487 5489 5490 5492 5493 5495 5497 5499 5502 5504 5507 5509 5512 5515 5519 5522 5525 5528 5532 5535 5538 5540 5543 5545 5547 5549 5551 5553 5556 5557 5560 5562 5565 5567 5569 5571 5573 5575 5577 5579 5581 5584 5587 5589 5591 5593 5595 5597 5599 5602 5604 5605 5607 5608 5610 5613 5616 5618 5620 5623 5626 5628 5630 5632 5634 5636 5637 5639 5640 5641 5643 5645 5647 5649 5651 5653 5655 5657 5658 5660 5662
5467 5470 5473 5476 5477 5479 5480 5482 5483 5485 5487 5489 5491 5494 5497 5499 5502 5504 5507 5510 5513 5517 5520 5523 5527 5530 5533 5537 5539 5541 5543 5545 5547 5549 5551 5554 5556 5559 5562 5564 5565 5567 5570 5572 5574 5577 5579 5581 5583 5585 5587 5590 5592 5594 5597 5599 5600 5602 5603 5606 5609 5611 5612 5615 5617 5620 5622 5624 5626 5628 5630 5632 5634 5636 5637 5638 5640 5642 5644 5646 5648 5650 5652 5653 5655 5657
5457 5460 5463 5466 5468 5470 5472 5473 5475 5477 5479 5481 5484 5487 5489 5492 5494 5496 5498 5501 5504 5508 5512 5515 5519 5523 5526 5530 5532 5535 5537 5539 5541 5543 5546 5548 5551 5553 5556 5558 5560 5562 5564 5567 5569 5571 5574 5576 5578 5580 5582 5585 5587 5589 5592 5594 5596 5597 5599 5601 5603 5604 5607 5610 5613 5615 5617 5619 5621 5622 5624 5626 5628 5630 5632 5633 5635 5637 5639 5641 5643 5645 5647 5648 5650 5651
5447 5451 5454 5456 5458 5461 5463 5464 5466 5469 5472 5474 5476 5479 5482 5483 5485 5487 5490 5493 5496 5500 5503 5507 5511 5515 5519 5522 5526 5528 5530 5532 5535 5537 5540 5542 5544 5547 5549 5552 5554 5556 5558 5561 5564 5566 5568 5570 5572 5575 5577 5579 5582 5584 5587 5589 5591 5593 5595 5597 5598 5600 5603 5606 5608 5610 5612 5613 5615 5617 5619 5621 5622 5624 5626 5628 5630 5632 5634 5636 5638 5639 5642 5643 5645 5646
5438 5441 5443 5446 5448 5451 5453 5455 5458 5461 5464 5466 5469 5471 5473 5475 5477 5480 5482 5486 5489 5492 5495 5498 5502 5507 5511 5515 5518 5521 5524 5526 5528 5531 5533 5536 5538 5541 5543 5546 5548 5550 5553 5556 5558 5560 5562 5565 5567 5569 5572 5574 5577 5579 5582 5584 5586 5588 5590 5592 5593 5595 5598 5601 5602 5603 5606 5608 5610 5612 5613 5615 5617 5619 5621 5622 5625 5627 5629 5631 5632 5634 5636 5638 5640 5642
5427 5430 5432 5436 5439 5441 5444 5447 5450 5453 5455 5458 5460 5463 5465 5467 5470 5472 5475 5478 5481 5484 5487 5491 5494 5498 5503 5507 5511 5514 5517 5519 5522 5524 5527 5529 5532 5535 5537 5540 5542 5544 5547 5550 5552 5554 5556 5559 5562 5564 5566 5568 5572 5575 5577 5579 5581 5583 5585 5587 5588 5591 5592 5594 5596 5599 5601 5603 5604 5607 5608 5610 5612 5614 5616 5618 5620 5622 5624 5626 5628 5629 5631 5633 5635 5637
5417 5420 5423 5426 5429 5432 5435 5438 5441 5443 5446 5449 5452 5455 5457 5459 5462 5465 5467 5471 5473 5476 5480 5483 5487 5491 5495 5499 5503 5506 5509 5512 5514 5517 5520 5523 5526 5528 5531 5533 5536 5538 5541 5544 5547 5548 5551 5554 5556 5558 5560 5563 5567 5570 5572 5573 5576 5577 5579 5581 5584 5586 5588 5589 5592 5595 5597 5597 5599 5601 5603 5605 5607 5609 5612 5614 5616 5617 5619 5621 5623 5625 5627 5629 5631 5632
5407 5410 5414 5417 5419 5422 5425 5428 5431 5433 5437 5441 5444 5447 5449 5452 5454 5457 5460 5463 5466 5469 5472 5475 5479 5483 5488 5491 5494 5498 5501 5504 5507 5510 5513 5516 5519 5522 5525 5527 5529 5532 5535 5538 5540 5543 5546 5548 5551 5552 5555 5558 5562 5564 5566 5568 5570 5572 5574 5576 5578 5581 5582 5585 5587 5589 5591 5592 5593 5596 5597 5600 5602 5605 5607 5609 5611 5613 5615 5617 5619 5620 5622 5624 5626 5628
5397 5400 5403 5407 5409 5412 5415 5418 5421 5425 5429 5433 5436 5439 5442 5444 5447 5450 5452 5456 5459 5462 5465 5468 5472 5477 5480 5483 5487 5491 5494 5497 5500 5502 5506 5509 5512 5515 5518 5521 5523 5526 5529 5532 5534 5537 5540 5543 5545 5547 5550 5554 5556 5558 5560 5562 5564 5567 5569 5571 5573 5576 5578 5580 5582 5583 5585 5587 5589 5591 5592 5595 5597 5599 5601 5603 5606 5608 5610 5612 5614 5616 5617 5619 5622 5623
5386 5389 5393 5397 5400 5403 5407 5410 5413 5417 5421 5424 5427 5430 5433 5436 5439 5442 5445 5448 5451 5455 5458 5462 5466 5470 5473 5476 5480 5484 5487 5489 5492 5495 5498 5502 5504 5507 5511 5514 5517 5519 5523 5526 5528 5531 5534 5537 5539 5542 5545 5548 5550 5552 5553 5556 5559 5562 5563 5565 5568 5571 5572 5574 5576 5578 5580 5582 5584 5585 5587 5590 5592 5593 5595 5598 5601 5603 5606 5607 5609 5611 5613 5615 5617 5619
5375 5379 5383 5387 5391 5395 5398 5401 5404 5408 5412 5415 5418 5422 5426 5428 5432 5435 5437 5441 5444 5447 5451 5455 5459 5463 5466 5470 5474 5477 5480 5482 5485 5488 5492 5494 5497 5500 5503 5507 5510 5513 5516 5519 5522 5525 5528 5531 5534 5537 5540 5543 5545 5546 5548 5551 5554 5556 5558 5560 5562 5565 5567 5568 5570 5572 5575 5577 5578 5580 5582 5585 5587 5588 5590 5593 5595 5598 5600 5603 5605 5607 5608 5611 5612 5614
5366 5370 5374 5378 5382 5386 5390 5393 5396 5399 5403 5407 5410 5414 5417 5421 5424 5427 5430 5433 5437 5441 5444 5448 5452 5456 5460 5463 5467 5470 5473 5476 5479 5482 5485 5487 5490 5493 5497 5500 5503 5506 5510 5513 5516 5519 5522 5526 5528 5532 5534 5537 5539 5541 5543 5545 5548 5550 5552 5555 5557 5559 5561 5563 5565 5567 5570 5572 5573 5575 5577 5580 5582 5584 5586 5588 5590 5592 5594 5597 5600 5602 5604 5606 5608 5610
5359 5362 5366 5370 5374 5378 5381 5385 5388 5391 5395 5398 5402 5406 5409 5412 5416 5420 5423 5426 5430 5434 5437 5441 5445 5449 5453 5457 5460 5463 5467 5469 5472 5475 5478 5480 5483 5486 5490 5492 5496 5499 5503 5506 5510 5513 5517 5520 5523 5526 5528 5531 5533 5535 5537 5540 5542 5544 5547 5549 5551 5553 5556 5558 5560 5562 5564 5566 5568 5570 5572 5575 5577 5579 5582 5583 5585 5587 5589 5592 5595 5597 5599 5601 5603 5604